This is the latest recevied weather packets stored in our database for station/object KE5QKR. If no packets are shown the sender has not sent any weather packets the latest 10 day(s).
| Time | Temp. | Humidity | Pressure | Rain* | Wind** | Luminosity | Snow |
|---|---|---|---|---|---|---|---|
| 1777852370 | 21.67° C | 58% | 1015.8 hPa | 0 mm | - | 24 W/m² | - |
| 1777852067 | 22.22° C | 53% | 1016.2 hPa | 0 mm | - | 26 W/m² | - |
| 1777851765 | 22.78° C | 48% | 1016.1 hPa | 0 mm | - | 28 W/m² | - |
| 1777851462 | 22.78° C | 44% | 1016.3 hPa | 0 mm | - | 30 W/m² | - |
| 1777851158 | 22.78° C | 44% | 1016.3 hPa | 0 mm | - | 31 W/m² | - |
| 1777850855 | 22.78° C | 43% | 1016.2 hPa | 0 mm | - | 33 W/m² | - |
| 1777850552 | 22.78° C | 44% | 1016.3 hPa | 0 mm | - | 34 W/m² | - |
| 1777850250 | 23.33° C | 41% | 1016.4 hPa | 0 mm | - | 35 W/m² | - |
| 1777849946 | 23.33° C | 46% | 1016.1 hPa | 0 mm | - | 36 W/m² | - |
| 1777849642 | 23.33° C | 46% | 1016.1 hPa | 0 mm | - | 40 W/m² | - |
| 1777849340 | 23.33° C | 42% | 1016.2 hPa | 0 mm | - | 40 W/m² | - |
| 1777849037 | 23.89° C | 43% | 1016.3 hPa | 0 mm | - | 52 W/m² | - |
| 1777848737 | 23.33° C | 40% | 1016.2 hPa | 0 mm | - | 45 W/m² | - |
| 1777848435 | 24.44° C | 40% | 1016.4 hPa | 0 mm | - | 79 W/m² | - |
| 1777848133 | 24.44° C | 43% | 1016.5 hPa | 0 mm | - | 123 W/m² | - |
| 1777847830 | 23.89° C | 42% | 1016.4 hPa | 0 mm | - | 205 W/m² | - |
| 1777847527 | 23.89° C | 42% | 1016.5 hPa | 0 mm | - | 101 W/m² | - |
| 1777847232 | 23.33° C | 40% | 1016.4 hPa | 0 mm | - | 129 W/m² | - |
| 1777846922 | 23.33° C | 40% | 1016.5 hPa | 0 mm | - | 58 W/m² | - |
| 1777846620 | 23.89° C | 40% | 1016.6 hPa | 0 mm | - | 130 W/m² | - |
| 1777846317 | 23.33° C | 41% | 1016.5 hPa | 0 mm | - | 182 W/m² | - |
| 1777846013 | 23.33° C | 40% | 1016.8 hPa | 0 mm | - | 65 W/m² | - |
| 1777845710 | 23.89° C | 38% | 1016.7 hPa | 0 mm | - | 58 W/m² | - |
| 1777845407 | 24.44° C | 40% | 1016.8 hPa | 0 mm | - | 58 W/m² | - |
| 1777845103 | 24.44° C | 43% | 1016.7 hPa | 0 mm | - | 81 W/m² | - |
* Rain latest hour (hover to see other rain measurements)
** Current wind speed in m/s (hover to see current wind gust speed)